METEOR 2-11 DEB, 40710

Orbit data source: Space-Track

METEOR 2-11 DEB, 40710 is space debris in LEO originally from a launch on Thu, 05 Jul 1984 UTC launched from the Plesetsk Missile And Space Complex (PKMTR). Debris objects in space refer to the collection of defunct objects orbiting the Earth. Examples of debris include non-operational satellites, rocket bodies, and fragments generated from explosions, collisions, or faulty payload assembly.

Loading next visibility...
Identifier
40710, 1984-072M
Orbit
LEO
Country
Flag of CISCIS
Related business
Manufacturer
Unknown
Mission
Spacecraft
Bus & Motor
Unknown
Mass
Unknown
Launch date (UTC)
1984-07-05 (42 years ago)
Launch vehicle
Unknown
Launch site
Plesetsk Missile And Space Complex (PKMTR)
Object type
Payload
Rocket body
Debris
Shape & HBR
Unknown shape, 0.1 m
Radar Cross Section
Small (<0.1 m²)

Expand to show TLE details & history
Last TLE update: 1 week ago

TLE from 1 week ago
0 METEOR 2-11 DEB
1 40710U 84072M   26202.66787016  .00001733  00000-0  12257-2 0  9999
2 40710  82.5263 342.0038 0033169 287.0211  72.7323 13.97090365115940
Epoch: 2026-07-21T16:01Z
TLE epoch observation values (Epoch: 2026-07-21T16:01:43.981Z)
Latitude
-0.00003°
Longitude
162.13628°
Altitude
899.71 km
Speed
7.406 km/s
True Right ascension
22h 48m 00s
True Declination
0° 00' 00"
Sunlit
Object was in full shadow at epoch
Visualization orbit readout
Latitude
Unknown
Longitude
Unknown
Altitude
Unknown
Speed
Unknown
Apparent Right ascension
Unknown
Apparent Declination
Unknown
Sunlit
N/A
Visualization observer readout
Local Sidereal Time
06:26:01
Azimuth
Unknown
Elevation
Unknown
Doppler factor
Unknown
Orbital elements
Apogee altitude
925.167 km
Perigee altitude
876.879 km
Semi-major axis
7,279.16 km
Eccentricity
0.00332
Inclination
82.5263°
RAAN
342.0038°
Arg. of periapsis
287.0211°
True anomaly
73.0957°
Mean anomaly
72.7323°
Eccentric anomaly
72.91396°
Mean motion
3.49479 °/min
Orbital period
103.01 mins
BSTAR
0.0012257
Loading maneuver chart data...
Computing Atmospheric mass density...
Loading historical data...
Loading historical data...
Loading historical data...
Loading historical data...
Loading historical data...
Loading historical data...
Loading historical data...

Documentation

Showing up to 5 results
|